Location: Roc des P�zouls
(43.9667°N, 3.5500°E)
Time: 12:28:27
(UTC+00:00)

Cosmos 2369 - Pass Details

Date: 14 November 2019
Orbit: 838 x 858 km, 71.0° (Epoch: 15 December)

Event Time Altitude Azimuth Distance (km) Brightness Sun altitude
Exits shadow 04:22:41 60° 250° (WSW) 980 3.7 -24.5°
Drops below altitude 10° 04:28:18 10° 172° (S) 2,483 6.3 -23.5°
Sets 04:30:46 0° 169° (SSE) 3,415 7.0 -23.0°
